Location: Feydey
(46.3431°N, 7.0106°E)
Time: 05:13:21
(UTC+00:00)

Cosmos 1844 Rocket - Visible Passes

Search period start: 18 October 2021 00:00
Search period end: 28 October 2021 00:00
Orbit: 825 x 843 km, 71.0° (Epoch: 17 October)

Date Brightness Start Highest point End Pass type
(mag) Time Alt. Az. Time Alt. Az. Time Alt. Az.
18 Oct 4.5 17:24:11 10° N 17:26:41 13° NE 17:29:11 10° ENE visible
18 Oct 3.0 19:06:25 10° NNW 19:11:03 50° NNE 19:11:03 50° NNE visible
18 Oct 5.1 20:51:00 10° NW 20:52:44 17° WNW 20:52:44 17° WNW visible
19 Oct 4.5 17:07:11 10° NNE 17:09:21 12° NE 17:11:30 10° ENE visible
19 Oct 2.9 18:49:13 10° NNW 18:54:30 51° NE 18:54:30 51° NE visible
19 Oct 4.8 20:33:38 10° NW 20:36:11 21° WNW 20:36:11 21° WNW visible
20 Oct 2.9 18:32:00 10° NNW 18:37:23 47° ENE 18:38:02 45° ENE visible
20 Oct 4.5 20:16:18 10° NW 20:19:43 26° W 20:19:43 26° W visible
21 Oct 3.0 18:14:48 10° NNW 18:20:07 43° NE 18:21:39 35° E visible
21 Oct 4.2 19:58:59 10° NW 20:03:21 31° W 20:03:21 31° W visible
22 Oct 3.1 17:57:35 10° NNW 18:02:51 40° NE 18:05:24 26° ESE visible
22 Oct 3.9 19:41:39 10° NW 19:46:39 35° WSW 19:47:06 34° WSW visible
23 Oct 3.2 17:40:24 10° NNW 17:45:34 37° NE 17:49:18 17° ESE visible
23 Oct 3.9 19:24:20 10° NW 19:29:28 38° WSW 19:31:01 32° SW visible
24 Oct 3.3 17:23:12 10° NNW 17:28:17 34° NE 17:33:20 10° ESE visible
24 Oct 3.7 19:07:02 10° NW 19:12:15 42° WSW 19:15:10 23° SSW visible
25 Oct 3.4 17:06:01 10° NNW 17:11:00 32° NE 17:15:57 10° ESE visible
25 Oct 3.6 18:49:45 10° NW 18:55:03 46° WSW 18:59:38 13° S visible
26 Oct 3.5 16:48:50 10° N 16:53:42 30° NE 16:58:34 10° ESE visible
26 Oct 3.5 18:32:28 10° NW 18:37:50 50° WSW 18:43:10 10° S visible
27 Oct 3.3 18:15:11 10° NW 18:20:37 55° WSW 18:26:02 10° S visible
